Home   Weather   Fevik   Past weeks

Flag for Norway Past Weather in Fevik, Norway — Yesterday and Last 2 Weeks

Now
60 °F

Cool.


Feels Like: 58 °F
Forecast: 54 / 61 °F
Wind: 10 mph from West

Location: Torungen Fyr

Current Time: Sep 28, 2016 at 8:54:31 PM

Latest Report: Sep 28, 2016 at 8:00 PM


Visibility: N/A

Pressure: 29.75 "Hg

Humidity: 64%

Dew Point: 47 °F

Location of FevikLocation

Past Weather in Fevik — Graph

°F

Fevik Temperature Yesterday

Maximum temperature yesterday: 63 °F (at 6:00 PM)
Minimum temperature yesterday: 51 °F (at 6:00 AM)
Average temperature yesterday: 57 °F

High & Low Weather Summary for the Past Weeks

 TemperatureHumidityPressure
High68 °F (Sep 15, 4:00 PM)98% (Sep 17, 6:00 AM)30.26 "Hg (Sep 17, 6:00 AM)
Low51 °F (Sep 27, 6:00 AM)49% (Sep 23, 4:00 PM)29.63 "Hg (Sep 28, 8:00 AM)
Average60 °F85%30.11 "Hg
* Reported Sep 13 7:00 PM — Sep 28 7:00 PM, Fevik, Weather by CustomWeather, © 2016

Note: Actual official high and low records may vary slightly from our data, if they occured in-between our weather recording intervals... More about our weather records

Advertising

Fevik Weather History for the Previous 24 Hours

Scroll right to see more
 ConditionsComfort  
Time TempWeatherWind HumidityBarometerVisibility
7:00 PM
Wed, Sep 28
61 °FCool.8 mph61%29.75 "HgN/A
6:00 PM62 °FCool.10 mph61%29.71 "HgN/A
5:00 PM62 °FCool.12 mph65%29.68 "HgN/A
4:00 PM62 °FCool.14 mph68%29.66 "HgN/A
3:00 PM62 °FCool.13 mph66%29.66 "HgN/A
2:00 PM62 °FCool.10 mph67%29.66 "HgN/A
1:00 PM61 °FCool.13 mph63%29.67 "HgN/A
12:00 PM60 °FCool.10 mph69%29.67 "HgN/A
11:00 AM59 °FCool.12 mph74%29.67 "HgN/A
10:00 AM58 °FCool.9 mph76%29.66 "HgN/A
9:00 AM57 °FCool.13 mph77%29.64 "HgN/A
8:00 AM58 °FCool.12 mph83%29.63 "HgN/A
7:00 AM58 °FCool.14 mph83%29.65 "HgN/A
6:00 AM58 °FCool.14 mph82%29.65 "HgN/A
5:00 AM59 °FCool.16 mph81%29.67 "HgN/A
4:00 AM59 °FCool.16 mph78%29.68 "HgN/A
3:00 AM58 °FCool.14 mph83%29.74 "HgN/A
2:00 AM58 °FCool.12 mph86%29.76 "HgN/A
1:00 AM59 °FCool.12 mph88%29.80 "HgN/A
12:00 AM59 °FCool.13 mph88%29.80 "HgN/A
11:00 PM
Tue, Sep 27
60 °FCool.13 mph88%29.81 "HgN/A
10:00 PM61 °FCool.24 mph95%29.82 "HgN/A
9:00 PM60 °FCool.25 mph94%29.83 "HgN/A
8:00 PM60 °FCool.24 mph89%29.90 "HgN/A
Weather by CustomWeather, © 2016

See weather overviewHow to use our weather pages